Location: �couen
(49.0206°N, 2.3831°E)
Time: 19:47:21
(UTC+00:00)

Cosmos 2227 - Pass Details

Date: 05 June 2022
Orbit: 833 x 863 km, 71.0° (Epoch: 25 June)

Event Time Altitude Azimuth Distance (km) Brightness Sun altitude
Rises 20:27:21 0° 324° (NW) 3,450 9.7 -5.5°
Reaches altitude 10° 20:30:06 10° 314° (NW) 2,510 8.6 -5.8°
Maximum altitude 20:34:59 29° 256° (WSW) 1,526 5.9 -6.4°
Drops below altitude 10° 20:39:51 10° 198° (SSW) 2,494 6.4 -6.9°
Sets 20:42:34 0° 187° (S) 3,424 7.0 -7.2°
